TimeEST,TemperatureF,Dew PointF,Humidity,Sea Level PressureIn,VisibilityMPH,Wind Direction,Wind SpeedMPH,Gust SpeedMPH,PrecipitationIn,Events,Conditions,WindDirDegrees,DateUTC
12:15 AM,41.0,28.0,60,30.26,10.0,WNW,8.1,-,N/A,,Scattered Clouds,290,2013-11-09 05:15:00
12:35 AM,39.7,28.4,64,30.26,10.0,West,6.9,-,N/A,,Clear,280,2013-11-09 05:35:00
12:55 AM,40.3,28.4,63,30.25,10.0,WNW,9.2,-,N/A,,Clear,290,2013-11-09 05:55:00
1:15 AM,40.3,28.4,63,30.26,10.0,West,6.9,-,N/A,,Clear,280,2013-11-09 06:15:00
1:35 AM,40.1,28.4,63,30.27,10.0,West,6.9,-,N/A,,Clear,280,2013-11-09 06:35:00
1:55 AM,39.7,28.2,63,30.28,10.0,West,5.8,-,N/A,,Clear,270,2013-11-09 06:55:00
2:15 AM,38.8,28.4,66,30.28,10.0,WNW,6.9,-,N/A,,Clear,290,2013-11-09 07:15:00
2:35 AM,38.3,28.2,67,30.28,10.0,West,5.8,-,N/A,,Clear,280,2013-11-09 07:35:00
2:55 AM,38.8,28.4,66,30.28,10.0,West,4.6,-,N/A,,Clear,270,2013-11-09 07:55:00
3:15 AM,38.3,28.4,68,30.28,10.0,WNW,6.9,-,N/A,,Clear,290,2013-11-09 08:15:00
3:35 AM,37.4,28.4,70,30.28,10.0,WNW,6.9,-,N/A,,Clear,300,2013-11-09 08:35:00
3:55 AM,37.0,28.6,71,30.29,10.0,WNW,5.8,-,N/A,,Clear,300,2013-11-09 08:55:00
4:15 AM,36.7,28.6,72,30.29,10.0,Calm,Calm,-,N/A,,Clear,0,2013-11-09 09:15:00
4:35 AM,36.7,28.4,72,30.30,10.0,Calm,Calm,-,N/A,,Clear,0,2013-11-09 09:35:00
4:55 AM,36.7,28.6,72,30.30,10.0,West,3.5,-,N/A,,Clear,260,2013-11-09 09:55:00
5:15 AM,36.7,28.6,72,30.30,10.0,West,5.8,-,N/A,,Clear,280,2013-11-09 10:15:00
5:35 AM,37.0,28.4,71,30.30,10.0,WNW,6.9,-,N/A,,Clear,290,2013-11-09 10:35:00
5:55 AM,36.5,28.2,72,30.31,10.0,WNW,5.8,-,N/A,,Clear,290,2013-11-09 10:55:00
6:15 AM,35.4,28.0,75,30.31,10.0,WNW,6.9,-,N/A,,Clear,300,2013-11-09 11:15:00
6:35 AM,35.1,27.9,75,30.32,10.0,WNW,4.6,-,N/A,,Clear,290,2013-11-09 11:35:00
6:55 AM,34.7,27.9,76,30.32,10.0,WNW,4.6,-,N/A,,Clear,290,2013-11-09 11:55:00
7:15 AM,36.7,28.2,71,30.32,10.0,West,5.8,-,N/A,,Clear,280,2013-11-09 12:15:00
7:35 AM,37.8,28.4,69,30.32,10.0,West,5.8,-,N/A,,Clear,280,2013-11-09 12:35:00
7:55 AM,39.0,28.6,66,30.32,10.0,West,6.9,-,N/A,,Clear,280,2013-11-09 12:55:00
8:15 AM,40.6,28.4,62,30.33,10.0,West,9.2,-,N/A,,Clear,280,2013-11-09 13:15:00
8:35 AM,42.1,28.9,60,30.32,10.0,WNW,8.1,-,N/A,,Clear,290,2013-11-09 13:35:00
8:55 AM,43.3,29.3,58,30.31,10.0,WNW,8.1,-,N/A,,Clear,300,2013-11-09 13:55:00
9:15 AM,43.7,29.1,57,30.32,10.0,WNW,9.2,-,N/A,,Scattered Clouds,290,2013-11-09 14:15:00
9:35 AM,44.1,29.3,56,30.32,10.0,WNW,8.1,-,N/A,,Clear,290,2013-11-09 14:35:00
9:55 AM,44.1,28.9,55,30.32,10.0,West,5.8,-,N/A,,Scattered Clouds,280,2013-11-09 14:55:00
10:15 AM,44.8,29.5,55,30.31,3.0,WNW,5.8,-,N/A,,Haze,290,2013-11-09 15:15:00
10:35 AM,45.5,29.5,54,30.31,10.0,WNW,4.6,-,N/A,,Clear,300,2013-11-09 15:35:00
10:55 AM,46.0,28.4,50,30.30,10.0,NW,8.1,-,N/A,,Clear,310,2013-11-09 15:55:00
11:15 AM,46.6,27.9,48,30.29,10.0,West,8.1,-,N/A,,Clear,280,2013-11-09 16:15:00
11:35 AM,47.1,28.2,48,30.29,10.0,West,8.1,-,N/A,,Clear,280,2013-11-09 16:35:00
11:55 AM,47.8,27.9,46,30.27,10.0,West,10.4,-,N/A,,Clear,270,2013-11-09 16:55:00
12:15 PM,48.2,26.4,43,30.26,10.0,WNW,10.4,-,N/A,,Clear,290,2013-11-09 17:15:00
12:35 PM,49.1,25.5,40,30.24,10.0,West,3.5,-,N/A,,Clear,270,2013-11-09 17:35:00
12:55 PM,50.0,24.4,37,30.24,10.0,West,8.1,-,N/A,,Clear,280,2013-11-09 17:55:00
1:15 PM,50.9,24.6,36,30.22,10.0,WNW,8.1,-,N/A,,Clear,290,2013-11-09 18:15:00
1:35 PM,52.0,24.6,35,30.21,10.0,West,11.5,-,N/A,,Clear,280,2013-11-09 18:35:00
1:55 PM,51.8,24.1,34,30.21,10.0,West,8.1,-,N/A,,Clear,280,2013-11-09 18:55:00
2:15 PM,53.1,24.8,33,30.19,10.0,West,5.8,-,N/A,,Clear,260,2013-11-09 19:15:00
2:35 PM,51.8,24.6,35,30.18,10.0,West,4.6,-,N/A,,Clear,260,2013-11-09 19:35:00
2:55 PM,51.6,24.6,35,30.17,10.0,West,6.9,-,N/A,,Clear,260,2013-11-09 19:55:00
3:15 PM,52.3,24.6,34,30.16,10.0,West,6.9,-,N/A,,Clear,280,2013-11-09 20:15:00
3:35 PM,51.8,24.4,34,30.16,10.0,WSW,5.8,-,N/A,,Clear,250,2013-11-09 20:35:00
3:55 PM,50.9,24.3,35,30.15,10.0,SW,5.8,-,N/A,,Clear,220,2013-11-09 20:55:00
4:15 PM,50.4,25.0,37,30.16,10.0,WSW,4.6,-,N/A,,Clear,250,2013-11-09 21:15:00
4:35 PM,50.4,24.6,37,30.16,10.0,WSW,5.8,-,N/A,,Clear,240,2013-11-09 21:35:00
4:55 PM,50.0,24.8,37,30.15,10.0,WSW,4.6,-,N/A,,Clear,250,2013-11-09 21:55:00
5:15 PM,49.5,25.3,39,30.15,10.0,Calm,Calm,-,N/A,,Clear,0,2013-11-09 22:15:00
5:35 PM,49.5,25.5,39,30.14,10.0,SSW,4.6,-,N/A,,Clear,200,2013-11-09 22:35:00
5:55 PM,49.1,25.5,40,30.14,10.0,SSW,3.5,-,N/A,,Clear,210,2013-11-09 22:55:00
6:15 PM,49.3,25.3,39,30.14,10.0,SSW,4.6,-,N/A,,Clear,210,2013-11-09 23:15:00
6:35 PM,49.1,25.7,40,30.14,10.0,SSW,3.5,-,N/A,,Clear,210,2013-11-09 23:35:00
6:55 PM,49.1,25.7,40,30.14,10.0,SSW,4.6,-,N/A,,Clear,210,2013-11-09 23:55:00
7:15 PM,48.7,26.1,41,30.13,10.0,SSW,4.6,-,N/A,,Scattered Clouds,210,2013-11-10 00:15:00
7:35 PM,48.6,27.0,43,30.12,10.0,SSW,4.6,-,N/A,,Scattered Clouds,210,2013-11-10 00:35:00
7:55 PM,48.2,27.9,45,30.12,10.0,SSW,3.5,-,N/A,,Clear,200,2013-11-10 00:55:00
8:15 PM,47.7,28.8,48,30.13,10.0,Calm,Calm,-,N/A,,Clear,0,2013-11-10 01:15:00
8:35 PM,47.5,29.1,49,30.12,10.0,Calm,Calm,-,N/A,,Clear,0,2013-11-10 01:35:00
8:55 PM,47.3,30.0,51,30.11,10.0,SW,3.5,-,N/A,,Scattered Clouds,230,2013-11-10 01:55:00
9:35 PM,46.4,31.1,55,30.09,10.0,SSW,3.5,-,N/A,,Scattered Clouds,200,2013-11-10 02:35:00
9:55 PM,46.4,31.6,56,30.09,10.0,Calm,Calm,-,N/A,,Scattered Clouds,0,2013-11-10 02:55:00
10:15 PM,45.9,32.0,58,30.08,10.0,Calm,Calm,-,N/A,,Scattered Clouds,0,2013-11-10 03:15:00
10:35 PM,45.5,32.0,59,30.07,10.0,Calm,Calm,-,N/A,,Clear,0,2013-11-10 03:35:00
10:55 PM,45.5,32.2,60,30.06,10.0,Calm,Calm,-,N/A,,Scattered Clouds,0,2013-11-10 03:55:00
11:15 PM,45.0,32.7,62,30.05,10.0,Calm,Calm,-,N/A,,Overcast,0,2013-11-10 04:15:00
11:35 PM,45.1,33.3,63,30.04,10.0,Calm,Calm,-,N/A,,Overcast,0,2013-11-10 04:35:00
11:55 PM,45.1,33.3,63,30.02,10.0,Calm,Calm,-,N/A,,Overcast,0,2013-11-10 04:55:00